WetterOnline ( https://www.wetteronline.de )

Wetter aktuell Tarifa

Aktuelles Wetter: Gibraltar (5m)

6-stündlich | Neueste Meldungen
Ortszeit Temperatur Wetter
So, 21.07. 20:00 27.3° C wolkenlos
So, 21.07. 14:00 28.0° C wolkenlos
So, 21.07. 8:00 22.4° C wolkenlos
So, 21.07. 2:00 24.4° C wolkenlos
Sa, 20.07. 20:00 31.4° C wolkenlos
Sa, 20.07. 14:00 31.3° C wolkenlos
Sa, 20.07. 8:00 21.7° C bedeckt
Sa, 20.07. 2:00 22.6° C leicht bewölkt
Ortszeit Temperatur Wetter
So, 21.07. 22:00 26.3° C fast wolkenlos
So, 21.07. 21:00 27.8° C wolkenlos
So, 21.07. 20:00 27.3° C wolkenlos
So, 21.07. 19:00 29.2° C wolkenlos
So, 21.07. 18:00 29.7° C wolkenlos
So, 21.07. 17:00 28.3° C wolkenlos
So, 21.07. 16:00 28.6° C wolkenlos
Ortszeit Relative Feuchte Sichtweite
So, 21.07. 20:00 57% 30 km
So, 21.07. 14:00 54% 26 km
So, 21.07. 8:00 83% 22 km
So, 21.07. 2:00 69% 30 km
Sa, 20.07. 20:00 37% 28 km
Sa, 20.07. 14:00 42% 30 km
Sa, 20.07. 8:00 82% 19 km
Sa, 20.07. 2:00 95% 16 km
Ortszeit Relative Feuchte Sichtweite
So, 21.07. 22:00 57% 30 km
So, 21.07. 21:00 53% 30 km
So, 21.07. 20:00 57% 30 km
So, 21.07. 19:00 50% 30 km
So, 21.07. 18:00 48% 30 km
So, 21.07. 17:00 52% 28 km
So, 21.07. 16:00 52% 29 km
Ortszeit Niederschlagsmenge Niederschlagsart
So, 21.07. 20:00 0.0 l/m2 in 12 Std. -
So, 21.07. 14:00 0.0 l/m2 in 6 Std. -
So, 21.07. 8:00 0.0 l/m2 in 12 Std. -
So, 21.07. 2:00 0.0 l/m2 in 6 Std. -
Sa, 20.07. 20:00 0.0 l/m2 in 12 Std. -
Sa, 20.07. 14:00 0.0 l/m2 in 6 Std. -
Sa, 20.07. 8:00 0.0 l/m2 in 12 Std. -
Sa, 20.07. 2:00 0.0 l/m2 in 6 Std. -
Ortszeit Niederschlagsmenge Niederschlagsart
So, 21.07. 22:00 0.0 l/m2 in 1 Std. -
So, 21.07. 21:00 0.0 l/m2 in 1 Std. -
So, 21.07. 20:00 0.0 l/m2 in 1 Std. -
So, 21.07. 19:00 0.0 l/m2 in 1 Std. -
So, 21.07. 18:00 0.0 l/m2 in 1 Std. -
So, 21.07. 17:00 0.0 l/m2 in 1 Std. -
So, 21.07. 16:00 0.0 l/m2 in 1 Std. -
Ortszeit Stärke Spitze Richtung
km/h Bft. km/h Grad Sektor
So, 21.07. 20:00 28 4 37 270° W
So, 21.07. 14:00 24 4 37 240° SW
So, 21.07. 8:00 26 4 39 220° SW
So, 21.07. 2:00 22 4 31 250° W
Sa, 20.07. 20:00 22 4 31 210° SW
Sa, 20.07. 14:00 33 5 43 200° S
Sa, 20.07. 8:00 9 2 24 260° W
Sa, 20.07. 2:00 7 2 9 230° SW
Ortszeit Stärke Spitze Richtung
km/h Bft. km/h Grad Sektor
So, 21.07. 22:00 26 4 39 250° W
So, 21.07. 21:00 24 4 43 240° SW
So, 21.07. 20:00 28 4 37 270° W
So, 21.07. 19:00 24 4 41 250° W
So, 21.07. 18:00 22 4 43 230° SW
So, 21.07. 17:00 30 5 41 200° S
So, 21.07. 16:00 24 4 41 210° SW
Ortszeit Untergrenze Bedeckung Gattung
total tief tief mittel hoch
So, 21.07. 20:00 - 0/8 0/8 - - -
So, 21.07. 14:00 - 0/8 0/8 - - -
So, 21.07. 8:00 - 0/8 0/8 - - -
So, 21.07. 2:00 - 0/8 0/8 - - -
Sa, 20.07. 20:00 - 0/8 0/8 - - -
Sa, 20.07. 14:00 - 0/8 0/8 - - -
Sa, 20.07. 8:00 6000 m 8/8 8/8 - - -
Sa, 20.07. 2:00 150 m 5/8 5/8 - - -
Ortszeit Bedeckungsgrad in Achtel und Wolkenuntergrenze
So, 21.07. 22:00 1(4800m)
So, 21.07. 21:00 keine Wolken
So, 21.07. 20:00 keine Wolken
So, 21.07. 19:00 keine Wolken
So, 21.07. 18:00 keine Wolken
So, 21.07. 17:00 keine Wolken
So, 21.07. 16:00 keine Wolken
Ortszeit Luftdruck NN (hPa) Tendenz (hPa in 3 Std.)
So, 21.07. 20:00 1012 - 0,9
So, 21.07. 14:00 1014 - 0,2
So, 21.07. 8:00 1013 + 0,4
So, 21.07. 2:00 1013 + 0,6
Sa, 20.07. 20:00 1010 - 0,9
Sa, 20.07. 14:00 1012 - 0,7
Sa, 20.07. 8:00 1012 - 0,7
Sa, 20.07. 2:00 1015 - 1,1
Ortszeit Luftdruck NN (hPa) Tendenz (hPa in 3 Std.)
So, 21.07. 22:00 1012 + 0,2
So, 21.07. 21:00 1012 - 0,6
So, 21.07. 20:00 1012 - 0,9
So, 21.07. 19:00 1012 - 1,1
So, 21.07. 18:00 1012 - 0,9
So, 21.07. 17:00 1013 - 1,0
So, 21.07. 16:00 1013 - 0,9
Ortszeit Schneehöhe (cm)
So, 21.07. 20:00 -
So, 21.07. 14:00 -
So, 21.07. 8:00 -
So, 21.07. 2:00 -
Sa, 20.07. 20:00 -
Sa, 20.07. 14:00 -
Sa, 20.07. 8:00 -
Sa, 20.07. 2:00 -
Ortszeit Schneehöhe (cm)
So, 21.07. 22:00 -
So, 21.07. 21:00 -
So, 21.07. 20:00 -
So, 21.07. 19:00 -
So, 21.07. 18:00 -
So, 21.07. 17:00 -
So, 21.07. 16:00 -
Link zu dieser Seite / Seite empfehlen

Das Wetter in ...